Weather in Volgorechensk

Russia / Kostroma Oblast     57°26′22″N   41°09′26″E
temp.,
°C
wind,
m/s
gust,
m/s
humid.,
%
clouds,
%
prec.,
mm/h
press.,
hPa
HPBL,
m
14 august, sun
sun1400:00+20sse2359100 0.0 102159
03:00+19s2365100 0.0 102181
06:00+19ssw2367100 0.0 1022103
09:00+23ssw2256100 0.0 1022425
12:00+27s2242100 0.0 10211730
15:00+25se2345100 0.0 1021290
18:00+24e3552100 0.0 1020180
21:00+21e356691 0.0 1021102
15 august, mon
mon1500:00+20ese3567100 0.0 1021108
03:00+20ese2466100 0.0 102286
06:00+19ese2468100 0.0 1022105
09:00+21ese2364100 0.0 1023175
12:00+23se2355100 0.0 1024360
15:00+27n124125 0.0 10231340
18:00+25e345098 0.0 1022138
21:00+22ese3659100 0.0 1023143
16 august, tue
tue1600:00+19se3566100 0.0 102486
03:00+18sse3372100 0.0 102555
06:00+18se2471100 0.0 102589
09:00+23se3455100 0.0 1025427
12:00+27ese554016 0.0 10242102
15:00+28se443394 0.0 10232503
18:00+26ese574267 0.0 1023792
21:00+20se475938 0.0 1023112
17 august, wed
wed1700:00+17ese346645 0.0 102351
03:00+15ese33736 0.0 102344
06:00+16ese35715 0.0 1023113
09:00+23ese45480 0.0 1023556
12:00+27ese44396 0.0 10211722
15:00+28ese43355 0.0 10212221
18:00+26ese454114 0.0 1020757
21:00+20ese35610 0.0 102169
18 august, thu
thu1800:00+17e34650 0.0 102153
03:00+16e23730 0.0 102126
06:00+16e35761 0.0 102198
09:00+23ese46504 0.0 1021598
12:00+27ese44383 0.0 10202070
15:00+28e55330 0.0 10192264
18:00+26ese45380 0.0 1019985
21:00+20e34580 0.0 102048